[Iaude] MPEC J148: 2024 GB15 [a=1.09,e=0.04,i=0.9,H=26.9]

mpec at cfa.harvard.edu mpec at cfa.harvard.edu
Wed May 8 06:56:19 EDT 2024


M.P.E.C. 2024-J148                                  Issued 2024 May 8, 10:54 UT

     The Minor Planet Electronic Circulars contain information on unusual
         minor planets, routine data on comets and natural satellites,
         and occasional editorial announcements.  They are published
    on behalf of Division F of the International Astronomical Union by the
          Minor Planet Center, Smithsonian Astrophysical Observatory,
                          Cambridge, MA 02138, U.S.A.
			  
             Prepared using the Tamkin Foundation Computer Network

                              MPC at CFA.HARVARD.EDU
            URL https://www.minorplanetcenter.net/    ISSN 1523-6714

                                   2024 GB15                                    


Observations:
     K24G15B 1C2024 04 07.28664 12 47 43.20 +02 53 38.1          21.1 GVEJ148G96
     K24G15B 1C2024 04 07.29175 12 47 42.98 +02 53 44.3          21.0 GVEJ148G96
     K24G15B*1C2024 04 12.32576312 50 23.086+04 20 44.48         20.70GVEJ148G96
     K24G15B 1C2024 04 12.33094712 50 22.931+04 20 49.56         21.14GVEJ148G96
     K24G15B 1C2024 04 12.33615812 50 22.747+04 20 54.13         21.53GVEJ148G96
     K24G15B 1C2024 04 12.34135812 50 22.535+04 21 00.14         20.43GVEJ148G96
     K24G15B  C2024 05 06.43558813 13 59.531+06 28 14.26         22.01wXEJ148F51
     K24G15B  C2024 05 06.45027213 13 59.870+06 28 09.06         22.22wXEJ148F51
     K24G15B  C2024 05 06.46496913 14 00.260+06 28 04.11         21.73wXEJ148F51
     K24G15B KC2024 05 07.30679613 15 10.548+06 23 10.46         21.50GVEJ148V06
     K24G15B KC2024 05 07.31214813 15 10.692+06 23 08.20         21.74GVEJ148V06
     K24G15B KC2024 05 07.31533013 15 10.789+06 23 07.12         21.77GVEJ148V06
     K24G15B KC2024 05 07.32169813 15 10.998+06 23 04.67         21.73GVEJ148V06
     K24G15B  C2024 05 08.31183213 16 40.774+06 17 41.71         22.03wXEJ148F51
     K24G15B KC2024 05 08.32250413 16 33.776+06 17 05.32         22.08GVEJ148V06
     K24G15B  C2024 05 08.32292813 16 41.008+06 17 37.96         21.80wXEJ148F51
     K24G15B KC2024 05 08.33261713 16 34.147+06 17 00.82         21.64GVEJ148V06
     K24G15B  C2024 05 08.33406513 16 41.237+06 17 33.79         22.01wXEJ148F51
     K24G15B KC2024 05 08.34272213 16 34.532+06 16 56.68         21.77GVEJ148V06
     K24G15B KC2024 05 08.34511013 16 34.619+06 16 55.42         21.69GVEJ148V06
     K24G15B  C2024 05 08.34522813 16 41.476+06 17 29.66         22.03wXEJ148F51

Observer details:
F51 Pan-STARRS 1, Haleakala.  Observers J. Herman, T. Lowe, P. Minguez, A.
    Schultz, I. Smith.  Measurers K. Chambers, T. de Boer, J. Fairlamb, H.
    Gao, M. Huber, C.-C. Lin, E. Magnier, Y. Ramanjooloo, R. Wainscoat, R.
    Weryk.  1.8-m Ritchey-Chretien + CCD.
G96 Mt. Lemmon Survey.  Observer H. Groeller.  Measurers B. Gray, D. Rankin,
    F. C. Shelly, T. Beuden, V. F. Carvajal, D. Fay, J. B. Fazekas, D. C.
    Fuls, A. R. Gibbs, A. D. Grauer, H. Groeller, J. K. Hogan, R. A. Kowalski,
    S. M. Larson, G. J. Leonard, R. L. Seaman, K. W. Wierzchos.  1.5-m
    reflector + 10K CCD.
V06 Catalina Sky Survey-Kuiper.  Observer H. Groeller.  Measurers T. Beuden,
    V. F. Carvajal, D. Fay, J. B. Fazekas, D. C. Fuls, A. R. Gibbs, A. D.
    Grauer, H. Groeller, J. K. Hogan, R. A. Kowalski, S. M. Larson, G. J.
    Leonard, D. Rankin, R. L. Seaman, F. C. Shelly, K. W. Wierzchos.  1.55-m
    reflector + 1K CCD.

Orbital elements:
2024 GB15                                                Earth MOID = 0.0434 AU
Epoch 2024 Mar. 31.0 TT = JDT 2460400.5                 Veres                   
M   6.02751              (2000.0)            P               Q                  
n   0.86510241     Peri.    6.62526     -0.99776638     +0.06679566             
a   1.0908316      Node   177.20435     -0.06199200     -0.92157852             
e   0.0437940      Incl.    0.90770     -0.02488471     -0.38240210             
P   1.14           H   26.92          G   0.15           U   6                  
Residuals in seconds of arc
240407 G96  0.1+  0.2-    240506 F51  0.0   0.1-    240508 V06  0.1-  0.1-
240407 G96  0.1-  0.2+    240506 F51  0.1+  0.2+    240508 F51  0.0   0.0
240412 G96  0.0   0.2-    240507 V06  0.1+  0.3+    240508 V06  0.0   0.2-
240412 G96  0.2+  0.1+    240507 V06  0.1-  0.0     240508 F51  0.1-  0.1-
240412 G96  0.1-  0.1-    240507 V06  0.1-  0.1+    240508 V06  0.1-  0.1+
240412 G96 (0.9-  1.2+)   240507 V06  0.0   0.1+    240508 V06  0.2-  0.2-
240506 F51  0.0   0.1+    240508 F51  0.1+  0.1-    240508 F51  0.1+  0.1-

Ephemeris:
2024 GB15                a,e,i = 1.09, 0.04, 1                   q = 1.0431
Date    TT    R. A. (2000) Decl.     Delta      r    Elong.  Phase     V
2024 04 08    12 48 03.8 +03 08 31   0.04392 1.0444   168.6    10.9    20.9
...
2024 04 23    12 58 42.6 +06 19 59   0.04688 1.0482   155.3    23.7    21.5
...
2024 05 01    13 07 15.4 +06 43 22   0.05025 1.0512   149.5    29.1    21.8
...
2024 05 07    13 14 49.6 +06 26 04   0.05357 1.0538   145.8    32.6    22.1
2024 05 08    13 16 11.7 +06 20 20   0.05419 1.0542   145.2    33.1    22.1
2024 05 09    13 17 35.9 +06 13 49   0.05483 1.0547   144.6    33.6    22.1
...
2024 05 15    13 26 43.9 +05 19 14   0.05904 1.0578   141.6    36.4    22.4
...
2024 05 23    13 40 34.8 +03 33 26   0.06559 1.0622   138.2    39.4    22.7
...
2024 06 07    14 09 52.5 -00 45 30   0.08091 1.0717   133.0    43.8    23.3

M. P. C. Staff               (C) Copyright 2024 MPC           M.P.E.C. 2024-J148





More information about the Iaude mailing list